Reflectivity
12 16 23 31 23 30 30 14 -12 -20 -3 3 -20 -9 -19 -20 -7 6 -6 20 18 6 13 23 -20 11 11 14 15 24 27 34 29 16 18 13 12 3 -9 18 -1 -7 5 9 4 8 2 -20 -20 -17 6 -20 -20 -20
14 23 26 28 25 18 16 16 12 7 -20 -13 5 10 13 16 17 19 22 18 22 14 16 -20 -12 -3 1 8 12 23 22 5 10 18 13 19 13 11 -19 1 -16 17 -19 -18 -20 -7 -20 -20 -16 -20 -20 -20 -20 -20
13 24 19 27 21 26 2 14 6 3 9 9 7 12 15 27 17 26 11 10 23 14 29 14 16 2 1 7 18 20 15 22 12 -19 21 19 21 9 10 -14 -20 -20 -20 3 7 -20 -20 -20 -20 -20 -20 -20 -20 -20
18 10 -1 -1 14 13 6 -20 -8 -1 -7 -1 24 28 28 19 24 25 11 8 22 33 18 3 -17 -12 3 13 14 11 14 13 15 8 19 20 18 -17 13 -20 -20 -20 -13 -17 -20 -20 -20 -20 -20 -20 -20 -20 -20 -20
10 -1 -19 -19 -4 -20 -2 11 -1 9 -20 12 20 24 23 20 20 19 11 17 21 20 26 16 -8 -20 -20 -7 4 17 26 21 18 25 20 11 15 18 5 -20 -20 -20 -20 3 3 -20 -20 -20 -20 -20 -20 -20 -20 -20
-8 19 16 21 13 -20 -20 -3 -2 11 9 10 32 30 29 27 33 37 38 33 30 32 30 14 -19 -15 -20 -20 4 14 28 33 27 36 20 19 14 22 17 11 -20 -20 -20 -20 -20 -20 -20 -20 -20 -20 -20 -20 -20 -20
-6 21 27 0 -0 15 6 12 13 2 -10 17 29 28 27 28 30 25 19 17 26 23 8 -7 -20 -20 -20 -20 18 0 12 12 23 26 7 19 19 6 -9 6 -20 -20 -20 -20 -20 -20 -16 -19 -18 -20 -20 -20 -16 -20
13 13 -2 -12 -1 13 -9 7 -1 13 -4 19 24 19 27 27 18 5 16 -3 5 27 20 7 9 3 -20 2 7 1 21 19 -14 -13 3 10 19 24 28 -20 -20 -20 -20 -20 -20 -20 -20 -15 -20 -20 -20 -19 -20 -20
17 23 10 31 21 -0 -13 -20 -13 13 5 11 21 33 36 33 32 31 18 17 13 -13 5 0 -10 -16 2 -7 4 14 14 21 18 17 37 16 7 13 -9 -20 -20 -20 -20 -20 -20 -20 -18 -20 -20 -20 -19 -16 -16 -20
31 27 16 13 12 17 -10 11 9 18 21 20 32 31 40 16 20 34 34 34 36 34 15 -19 -6 -19 -9 -10 8 18 19 2 14 18 28 22 -9 -20 -20 -20 -5 -12 -20 -20 -20 -20 -20 -19 -20 -20 -20 -18 -18 -14
22 16 16 30 15 31 17 11 23 21 19 24 22 34 15 15 10 27 33 25 15 1 -7 -1 -20 0 1 33 15 -18 8 5 -13 14 12 -14 -2 -3 -19 -12 -5 -15 -4 -20 -6 -2 -3 -8 -4 -20 -16 -1 2 -6
12 26 13 17 27 17 39 30 30 10 8 11 25 20 5 25 22 -10 -0 -10 -2 -4 -3 8 -0 -2 0 -9 20 1 8 -7 21 -13 -16 -4 -3 -4 -4 -4 -4 -7 -7 -3 -4 -2 -0 -3 -1 -3 -3 -3 5 10
23 7 6 2 -15 -6 23 -4 15 -18 -20 4 -10 28 11 -14 -15 -15 9 13 2 -16 -5 12 4 -20 4 -7 31 4 15 -14 -20 -20 -20 -5 -3 -4 -4 -6 -2 -0 -3 -7 -3 4 10 2 -4 -7 -2 7 5 -4
8 -20 -20 -16 -13 -20 -20 1 14 -4 -2 -20 -20 -20 -20 -20 -2 -2 -1 -4 -6 -19 -18 -1 20 27 22 27 31 10 -4 -14 -20 -20 -12 2 -0 0 -3 0 -5 -3 -2 -5 -3 -18 -19 -8 4 8 6 7 -0 -15
-19 -20 -20 -20 -20 -20 -19 -20 4 -12 -20 -20 -20 -14 -1 -0 -1 -1 -4 -4 -13 -7 -7 17 23 29 6 -2 6 8 -20 -20 -20 -4 2 2 2 1 1 -0 -4 -16 -6 -3 8 6 2 2 -3 -16 -3 6 6 3
-20 -20 -20 -20 -20 -20 -20 -20 -12 -19 -20 -20 -20 -13 -15 -7 -20 -20 -19 -13 -13 -18 -15 4 -12 -20 -20 -20 -20 -20 -20 -20 -1 3 3 1 -3 -4 -16 -2 -3 -4 3 4 2 3 5 1 -6 -16 -12 -13 -9 -9
-20 -20 -20 -20 -20 -20 -20 -20 -20 -20 -20 -20 -2 2 0 -2 -3 -4 -0 -12 -18 -19 -20 -20 -20 -20 -20 -20 -20 -5 -14 3 3 4 4 1 -4 -5 -1 -9 -16 -7 -16 -17 -20 -20 -19 -3 -7 -20 -20 -4 -20 -20
-11 -15 -20 -20 -20 -20 -20 -20 -20 -20 -20 -0 -2 2 2 2 1 1 3 -3 0 -19 -20 -20 -20 -20 -18 -20 -6 3 3 5 4 1 -0 4 3 2 3 1 2 -4 -19 -20 -20 -20 -20 -20 -20 -20 -20 -20 -20 -20
-20 -20 -20 -20 -20 -20 -20 -20 -20 -20 1 4 2 0 1 2 1 2 6 -1 -20 -20 -20 -20 -20 -20 -0 4 2 3 2 -10 -15 -5 -10 -13 -10 -10 -11 -16 -19 -20 -20 -20 -20 -20 -20 -20 -20 -20 -20 -20 -20 -5
-20 -20 -20 -20 -20 -20 -20 -20 -20 -20 -1 3 5 -10 -4 2 -1 2 -15 -20 -20 -20 -20 -20 -1 6 5 4 -6 -19 -19 -20 -20 -20 -20 -20 -20 -20 -20 -20 -20 -20 -20 -20 -20 -20 -20 -20 -20 -20 -20 -20 -20 -4
-20 -20 -20 -20 -20 -20 -20 -20 -20 -20 7 16 7 -2 3 -8 -8 -20 -20 -11 -6 -7 3 9 7 7 -3 3 2 -20 -0 -1 -4 -18 -20 -20 -20 -20 -20 -20 -20 -20 -20 -20 -20 -20 -20 -20 -20 -20 -20 -5 -2 -0
-20 -20 -20 -20 -20 -20 -20 -20 -19 -3 -20 -20 -20 -20 -17 -3 -3 -7 1 -13 2 11 2 6 2 -20 -20 -18 -20 -20 -20 -20 -20 -20 -20 -20 -20 -20 -20 -20 -20 -20 -20 -20 -20 -4 -16 -20 -20 -20 -20 -2 -20 -4
-20 -20 -20 -20 -20 -20 -8 -5 -9 -9 -20 -20 -20 -20 -20 -20 -20 -20 -20 -1 4 6 1 -20 -12 -20 -20 -20 -20 -20 -20 -20 -20 -20 -20 -20 -20 -20 -20 -20 -20 -17 -20 -20 -20 -12 -3 -19 -20 -1 -20 -1 1 -0
-20 -20 -20 -20 -20 -9 -20 -20 -20 -20 -20 -20 -20 -20 -20 -20 -20 -20 -18 -1 2 1 -3 -1 -20 -20 -20 -20 -20 -20 -20 -20 -20 -20 -20 -20 -20 -20 -20 -20 -20 -20 -20 -20 -20 -20 -4 -1 -18 -1 -12 -2 -16 -3
-20 -20 -20 -20 -20 -20 -20 -20 -20 -20 -20 -20 -20 -20 -20 -20 -20 -20 -20 -20 -20 -20 -20 -20 -20 -20 -20 -20 -20 -20 -20 -20 -20 -20 -20 -20 -20 -20 -20 -20 -20 -20 -20 -3 -20 -15 -20 -20 -20 -20 -20 -20 -20 -20
-20 -20 -20 -20 -20 -20 -20 -20 -20 -20 -20 -20 -20 -20 -20 -20 -20 -15 -15 -0 -10 -20 -20 -20 -20 -20 -20 -20 -20 -20 -20 -20 -20 -20 -20 -20 -20 -20 -20 -20 -20 -20 -20 -7 -3 -4 -20 -20 -20 -20 -20 -20 -20 -20
-20 -20 -20 -20 -20 -20 -20 -20 -20 -20 -20 -20 -20 -20 -20 -20 -20 -11 -3 -20 -20 -20 -20 -20 -20 -20 -20 -20 -20 -20 -20 -20 -20 -20 -20 -20 -20 -20 -20 -20 -20 -20 -20 -20 -20 -20 -20 -20 -20 -20 -20 -11 -9 -20
-20 -20 -20 -20 -20 -20 -20 -20 -20 -20 -20 -20 -20 -20 -20 -20 -10 -15 -18 -20 -20 -20 -20 -20 -20 -20 -20 -20 -20 -20 -20 -20 -20 -20 -20 -20 -20 -20 -20 -20 -20 -20 -18 -20 -1 -20 -4 -2 -2 -3 -15 -4 -18 -20
-20 -20 -20 -20 -20 -20 -18 -20 -20 -20 -20 -20 -20 -20 -2 -6 -18 -6 -20 -20 -20 -20 -20 -20 -20 -20 -20 -20 -20 -20 -20 -20 -18 -20 -20 -20 -20 -6 -20 -20 -20 -20 -20 -2 -19 -18 0 -20 -3 -5 -4 -2 -4 -20
-20 -20 -20 -20 -20 -16 -1 -0 -13 -20 -10 -17 -8 -17 -20 -10 -3 -11 -20 -20 -20 -20 -20 -20 -20 -20 -20 -20 -20 -20 -20 -20 -20 -20 -20 -20 -20 -20 -20 -20 -20 -20 -20 -20 -11 -7 -20 -20 -19 -16 -20 -20 -10 -15
-20 -20 -20 -20 -15 3 -13 -19 -14 -20 -20 -20 -20 -20 -20 -8 -20 -20 -20 -20 -20 -20 -20 -20 -20 -20 -20 -20 -20 -20 -20 -20 -20 -20 -20 -20 -20 -20 -20 -20 -20 -20 -20 -20 -20 -20 -20 -20 -20 -20 -20 -20 -20 -20
-20 -20 -20 -20 -20 -20 -20 -20 -20 -20 -20 -20 -20 -20 -20 -20 -20 -20 -20 -20 -20 -20 -20 -20 -20 -20 -20 -20 -20 -20 -20 -20 -20 -20 -20 -20 -20 -20 -20 -20 -20 -20 -20 -20 -20 -20 -20 -20 -20 -20 -20 -20 -20 -20
-20 -20 -20 -20 -20 -20 -20 -20 -20 -20 -20 -20 -20 -20 -20 -20 -20 -20 -20 -20 -20 -20 -20 -20 -20 -20 -20 -20 -20 -20 -20 -20 -20 -20 -20 -20 -20 -20 -20 -20 -20 -20 -20 -20 -20 -20 -20 -20 -20 -20 -20 -20 -20 -20
Wind_Speed
30 30 32 33 32 31 34 31 29 27 26 25 25 25 26 26 27 18 12 13 14 5 9 11 21 15 11 9 8 4 6 4 4 7 6 4 4 6 5 3 9 11 9 9 11 6 7 5 3 4 8 8 13 15
30 32 31 24 24 26 24 31 29 28 27 27 27 27 27 28 29 25 12 12 11 6 5 17 19 18 17 19 8 5 3 6 7 8 6 4 4 2 8 6 11 8 8 7 7 7 4 2 3 9 9 10 12 13
30 26 19 21 21 19 18 24 26 27 27 26 26 25 24 27 29 28 12 10 9 10 3 7 13 17 15 15 13 5 4 6 5 5 2 4 5 6 7 10 9 8 8 7 5 8 10 6 5 7 9 8 10 12
25 24 25 25 22 21 20 21 23 23 23 23 24 25 25 26 30 31 14 9 11 2 4 5 10 15 18 14 17 16 7 7 2 3 5 4 4 5 6 9 8 8 7 10 12 13 10 10 3 8 9 9 10 11
26 26 21 16 11 18 21 23 23 22 22 23 21 20 20 20 25 16 8 9 12 7 3 5 5 17 13 16 18 15 10 10 3 3 2 4 5 4 4 3 8 10 10 8 7 6 1 6 8 7 9 9 10 11
11 13 12 11 13 14 18 21 21 21 21 21 23 25 19 20 25 7 3 5 9 3 3 5 3 7 15 14 15 15 10 7 5 3 3 5 8 3 4 8 4 5 4 7 5 7 8 10 7 6 9 9 8 8
10 12 11 6 9 9 12 14 17 21 20 19 16 21 27 25 11 4 2 7 15 3 1 1 4 4 9 10 6 4 9 6 5 2 3 2 3 6 3 7 6 4 5 6 7 8 6 11 5 8 9 8 5 5
10 12 14 8 9 4 9 11 14 15 16 17 21 25 27 26 12 4 1 22 15 4 3 3 3 4 9 6 6 6 4 3 2 0 2 5 4 2 3 5 3 6 8 3 7 6 7 9 3 6 6 6 4 6
11 14 14 9 10 4 10 15 15 16 17 19 23 22 13 4 4 4 15 22 2 2 5 4 6 5 6 5 5 5 4 3 3 4 4 6 3 2 6 4 5 7 7 10 11 8 4 4 4 6 7 6 3 7
10 13 14 14 21 18 8 18 18 19 21 29 8 4 4 4 31 16 4 3 2 3 2 3 2 4 3 5 7 5 4 5 3 1 3 1 4 8 5 4 4 6 6 8 9 3 7 4 5 7 8 8 8 8
9 15 15 17 20 19 22 19 23 31 19 3 3 2 13 9 4 2 3 3 3 3 4 3 7 5 4 3 5 4 5 5 5 3 4 4 4 4 6 6 6 5 5 5 5 5 6 6 6 7 10 10 9 11
14 17 15 18 18 18 15 17 16 7 4 8 9 7 5 4 2 4 4 4 5 4 4 4 4 3 3 2 3 5 4 4 3 4 4 5 5 5 5 6 7 7 8 8 8 9 10 11 10 10 11 10 12 12
15 15 15 19 19 19 21 19 21 22 12 4 5 5 1 3 4 2 7 4 5 2 2 2 3 3 2 3 3 4 4 3 6 2 3 5 5 5 5 5 7 8 8 10 12 12 13 14 13 12 12 11 12 13
17 15 14 15 18 16 14 15 6 7 6 6 5 6 4 4 4 3 2 2 3 1 2 2 3 1 1 3 1 4 3 4 4 5 4 5 6 6 6 6 7 10 11 12 12 13 14 14 13 13 12 11 12 13
11 15 14 13 14 16 16 16 13 6 6 6 6 6 5 3 3 3 3 1 3 4 3 2 3 1 3 4 4 3 4 4 4 4 4 5 7 7 8 9 9 9 9 10 10 11 13 13 13 14 12 12 12 12
2 4 10 11 8 10 12 12 9 5 6 6 7 3 3 1 5 4 5 3 4 4 3 1 2 4 6 3 3 4 2 4 4 4 6 7 9 9 9 9 10 10 10 11 11 12 12 12 13 13 13 12 12 12
6 4 7 13 17 17 13 6 5 8 6 5 5 5 3 3 3 4 5 5 5 4 3 3 5 6 1 4 4 5 4 6 8 7 7 9 10 10 9 10 9 10 11 11 11 11 11 10 10 10 12 11 11 11
4 3 6 6 4 5 4 6 6 7 8 6 4 5 5 4 5 4 4 6 3 3 3 5 3 5 5 4 4 5 6 8 8 8 8 9 10 10 9 10 9 9 10 10 10 10 9 8 9 8 9 8 8 9
5 5 7 8 5 5 5 6 5 7 7 3 4 4 3 3 6 6 6 7 7 6 4 4 6 5 4 4 9 8 7 7 9 9 9 10 10 10 10 10 10 10 10 9 8 7 7 9 7 5 5 4 5 5
7 11 10 8 3 5 6 5 3 6 4 3 3 7 4 4 5 6 8 8 7 5 7 6 5 5 6 7 7 8 8 8 8 9 8 7 6 8 8 7 7 8 7 8 7 6 6 6 6 6 6 6 5 6
2 5 7 4 5 8 6 3 5 5 5 4 2 3 4 7 9 7 7 5 8 6 5 5 6 7 9 9 7 7 7 5 5 5 7 6 5 6 6 6 6 5 5 5 5 6 6 6 5 5 5 6 5 6
3 4 2 4 5 5 5 6 6 6 4 5 3 3 4 6 6 8 6 8 6 6 4 5 7 7 10 11 9 10 9 11 11 9 10 8 6 6 5 5 5 6 5 5 5 5 5 4 4 4 5 5 5 5
2 3 4 4 6 6 5 1 3 3 4 4 3 3 4 3 4 2 6 5 4 6 6 7 9 11 11 11 11 11 9 9 8 8 7 7 6 5 5 5 5 4 5 5 4 4 4 3 4 3 4 3 3 4
7 7 6 5 5 5 2 3 3 3 3 3 4 4 4 3 2 5 6 4 4 4 5 7 6 8 8 10 8 8 7 7 8 7 5 5 5 5 5 5 5 5 4 4 4 4 3 4 1 3 2 2 2 1
7 8 5 7 3 4 5 4 3 3 4 3 4 4 3 1 4 5 4 3 3 4 4 4 6 6 7 7 6 6 5 4 5 6 5 5 5 4 4 4 4 4 2 2 3 3 3 2 2 3 3 3 3 2
8 7 6 4 3 3 3 5 4 4 4 4 5 3 1 3 5 5 3 4 4 3 4 4 5 6 6 5 5 5 5 4 3 5 4 4 3 2 2 1 1 3 4 3 1 1 2 1 1 2 2 1 0 4
6 5 4 4 2 4 5 5 5 6 5 4 3 3 3 5 5 3 4 2 4 3 3 3 3 4 6 6 5 5 5 5 6 6 5 5 5 4 3 2 2 4 2 3 3 3 2 1 1 1 3 3 3 4
5 6 4 6 6 6 5 5 5 5 3 2 2 5 4 4 4 3 3 3 5 5 6 6 6 6 6 6 6 6 6 6 6 5 5 5 4 4 4 4 4 4 2 2 2 1 2 3 3 3 3 4 3 2
6 3 4 6 6 8 8 5 4 3 3 1 3 4 4 4 3 3 4 5 4 5 6 6 6 5 5 5 4 4 3 2 2 2 2 2 1 3 2 2 2 2 2 2 2 2 4 2 3 4 4 4 3 3
5 3 5 6 7 7 6 5 4 3 3 3 5 7 7 4 5 4 5 4 4 5 5 5 4 2 3 3 4 3 2 3 3 3 3 2 3 3 1 2 3 3 3 2 3 3 2 3 2 3 3 3 3 4
2 3 6 7 6 6 6 6 8 8 6 9 10 10 8 5 4 5 5 4 4 4 5 4 4 2 3 2 1 2 2 3 3 4 4 3 3 2 3 3 3 3 3 3 3 2 3 2 2 4 4 4 4 4
4 4 6 7 6 4 1 1 3 4 3 4 4 3 3 3 4 3 2 1 2 3 3 1 2 3 3 3 3 4 4 5 4 3 4 3 3 3 2 2 1 2 3 3 2 2 3 4 4 4 4 5 5 5
7 9 8 7 5 6 4 3 3 5 3 3 3 2 3 2 4 3 3 2 2 3 3 4 4 5 5 5 5 4 4 4 5 4 4 4 4 3 2 1 2 2 4 3 3 3 4 5 5 5 5 5 6 6
Wind_Direction
285 284 279 271 259 256 237 237 233 233 234 234 232 232 227 223 220 210 220 207 204 229 263 243 236 229 218 225 230 193 145 168 169 209 211 183 232 213 253 170 164 179 196 196 224 229 241 217 190 225 15 332 345 331
283 280 279 276 263 262 241 225 229 229 231 231 232 229 225 221 213 205 221 201 202 217 287 229 233 236 224 221 193 227 231 143 175 209 214 210 207 212 224 226 194 212 216 197 210 211 92 137 23 23 10 355 349 335
287 285 280 274 275 256 241 222 224 226 230 229 231 228 222 218 212 198 207 191 191 223 256 245 223 230 238 213 211 218 245 191 210 232 241 220 231 194 205 232 246 230 240 237 211 225 244 301 76 32 3 355 338 340
291 289 287 281 261 237 228 222 222 223 223 221 221 226 225 221 212 194 198 187 196 181 235 236 230 221 218 212 204 212 243 231 134 259 229 220 241 216 229 250 231 244 194 233 249 254 270 261 48 14 348 350 337 332
287 287 286 269 267 223 225 221 220 219 221 222 210 203 200 196 179 175 179 193 190 202 197 180 182 224 208 205 213 207 218 237 188 193 174 223 255 237 217 251 246 231 246 236 262 69 325 296 343 347 336 347 343 335
302 283 287 293 245 219 221 223 221 216 212 212 205 200 189 177 169 129 139 194 172 159 197 182 110 164 203 205 211 211 219 220 205 199 168 211 205 242 258 243 221 79 41 20 13 336 311 296 321 10 343 351 357 346
15 4 360 303 255 243 219 207 202 202 204 205 210 176 171 166 155 151 157 142 178 112 43 126 167 108 181 188 192 202 242 240 241 209 183 236 250 217 202 239 98 13 355 1 29 352 303 51 358 4 359 348 1 14
360 354 358 26 16 259 193 181 179 184 172 173 166 161 166 165 144 237 112 142 133 120 204 208 137 164 172 175 186 186 206 193 159 236 221 224 230 234 222 60 14 5 335 283 4 343 303 295 20 13 358 355 353 32
359 1 8 0 355 146 176 173 148 143 149 152 150 147 132 100 153 136 135 137 105 137 167 190 175 171 179 162 178 168 144 188 183 194 227 171 155 216 52 40 21 357 345 323 321 317 12 56 47 33 20 9 29 48
6 12 13 25 28 53 111 139 153 154 126 114 96 87 117 116 109 99 52 95 120 198 201 206 121 163 175 174 179 156 170 193 220 189 112 220 82 96 57 53 4 343 333 333 322 324 348 12 35 50 53 47 59 62
31 32 36 50 37 35 89 125 127 120 111 67 102 121 103 119 78 84 122 157 116 165 194 197 200 145 176 161 145 210 174 180 220 135 218 157 134 77 32 36 22 14 7 17 28 34 40 41 52 74 71 69 72 71
58 48 38 46 56 52 71 81 101 97 73 97 103 70 53 40 114 129 125 129 192 177 151 175 176 182 148 131 197 172 193 188 195 138 190 164 85 62 44 38 34 36 40 48 47 63 65 65 71 78 79 79 76 78
62 53 33 41 48 65 64 56 83 116 106 89 79 89 221 14 95 196 159 136 139 86 81 154 155 153 163 207 198 189 188 104 136 121 77 55 81 62 51 57 61 63 70 70 69 68 70 71 69 77 81 74 80 76
69 57 46 42 65 67 68 59 70 50 54 56 44 59 25 71 70 62 60 65 46 317 350 317 117 120 35 127 277 107 73 162 144 162 98 88 77 75 72 74 79 73 72 79 79 78 77 74 74 74 76 77 82 77
82 64 53 34 58 79 72 67 65 62 52 60 29 50 58 45 43 21 347 259 14 311 289 157 85 240 58 89 41 125 146 104 24 79 89 101 98 100 93 91 89 86 83 81 82 83 81 81 79 74 67 68 68 70
62 84 50 55 72 46 39 46 36 55 57 60 46 76 22 75 45 27 14 19 359 333 250 122 121 79 53 54 84 49 158 73 99 103 106 112 101 94 90 88 88 88 86 86 81 80 77 76 79 80 75 69 70 73
77 62 22 102 85 67 50 70 55 54 63 53 58 34 36 61 26 2 344 347 327 308 48 12 52 46 104 71 73 20 44 100 113 101 94 101 106 103 99 93 89 90 88 86 84 81 81 82 85 84 82 81 82 84
68 30 2 147 162 75 57 43 77 71 72 50 68 35 50 39 14 26 358 353 327 55 35 59 59 50 39 56 82 108 93 84 85 92 90 90 90 88 89 90 86 86 83 79 80 81 84 85 83 81 87 90 91 84
59 49 50 107 106 84 66 50 46 84 61 57 47 35 51 46 28 16 32 36 51 55 79 55 55 44 54 63 108 109 107 105 99 90 82 76 80 86 86 84 81 80 78 78 79 77 74 63 65 72 76 79 80 83
76 46 45 66 48 82 77 59 62 80 65 66 57 45 48 25 12 35 41 38 46 57 54 44 42 37 73 77 86 97 104 111 114 106 91 83 80 81 73 81 83 95 93 89 78 84 95 82 64 55 48 51 78 74
61 11 23 38 62 62 78 79 68 87 125 90 131 57 64 48 45 42 36 37 49 35 63 59 72 64 66 72 85 99 99 105 100 98 113 110 89 87 86 81 78 77 79 77 86 84 70 72 67 61 67 72 71 72
23 355 70 45 77 74 76 29 93 135 97 115 111 67 67 56 48 38 40 46 57 36 31 69 77 88 79 70 71 74 90 93 94 95 97 111 102 89 75 68 81 80 75 69 71 80 83 75 71 77 85 87 75 68
359 33 53 57 78 69 95 255 76 60 102 98 98 69 55 59 53 43 71 44 64 37 57 74 78 80 88 83 78 69 71 89 88 85 86 86 88 87 84 73 70 81 87 75 74 90 90 82 88 90 104 97 103 112
37 44 37 52 69 97 117 65 71 84 84 73 69 76 57 53 76 71 66 57 46 41 74 89 101 103 92 82 78 76 77 89 94 88 79 94 95 83 78 79 74 64 60 80 81 91 94 92 159 97 81 102 69 52
72 12 3 65 58 102 93 90 77 84 86 71 88 77 70 16 75 72 81 96 73 61 57 78 85 83 96 93 90 80 50 68 92 96 72 72 96 113 105 93 80 67 41 117 92 94 87 70 62 50 46 29 21 3
73 22 27 28 52 81 86 104 97 98 96 77 63 73 55 74 75 84 93 125 99 90 88 87 107 110 95 92 109 94 70 52 78 92 71 40 35 26 87 113 128 99 39 27 32 70 100 66 24 353 340 344 277 304
83 56 60 33 358 81 99 75 59 70 72 76 91 87 78 75 91 93 123 91 109 88 77 52 62 95 106 103 89 65 56 50 54 74 78 60 48 33 22 38 67 63 58 47 44 24 30 41 319 314 322 305 303 295
70 32 69 17 63 28 80 61 50 61 77 48 100 53 72 62 99 77 58 87 103 98 86 68 59 73 84 87 93 99 89 91 96 102 112 101 74 67 64 68 54 54 9 348 354 354 349 321 288 289 296 309 328 313
59 49 78 53 58 53 40 41 61 53 7 1 96 101 99 63 35 98 102 104 113 116 106 100 82 88 87 83 73 87 96 42 5 28 32 46 159 128 75 57 50 32 3 311 191 262 315 318 289 298 304 306 326 303
59 16 88 63 53 47 34 8 55 42 31 34 99 114 95 82 56 54 102 111 110 99 87 91 104 135 117 135 130 129 61 8 349 330 349 16 48 75 73 15 352 10 339 324 326 318 335 304 280 243 279 284 293 307
46 80 78 60 76 85 83 81 102 88 78 71 76 85 90 101 98 49 52 55 98 122 126 118 110 103 113 113 108 137 123 83 63 56 48 70 67 39 24 20 7 347 345 337 340 343 344 315 319 311 308 319 327 304
36 59 118 108 130 154 227 60 62 72 71 73 71 87 120 113 93 92 42 1 137 134 86 94 132 116 88 76 64 70 48 102 105 85 63 42 44 49 47 31 11 339 347 347 351 347 337 332 322 328 319 315 319 312
102 88 91 109 126 164 156 145 86 112 73 80 75 42 47 38 108 102 114 19 349 39 114 92 88 95 97 84 87 99 91 82 81 69 56 28 11 0 342 349 338 336 322 319 320 318 316 316 308 311 304 303 301 302